Change the Weather History Date:

Wednesday, December 26, 2012

  Actual Average (KEFC) Record (KEFC)
Temperature  
Mean Temperature 2 °F -  
Max Temperature 6 °F 34 °F 58 °F (1972)
Min Temperature -2 °F 13 °F -18 °F (1951)
Degree Days  
Heating Degree Days 63    
Moisture  
Dew Point 0 °F    
Average Humidity 84    
Maximum Humidity 92    
Minimum Humidity 78    
Precipitation  
Precipitation 0.34 in - - ()
Sea Level Pressure  
Sea Level Pressure 29.83 in    
Wind  
Wind Speed 3 mph (NW)    
Max Wind Speed 8 mph    
Max Gust Speed -    
Visibility 9 miles    
Events Snow    
Averages and records for this station are not official NWS values.
T = Trace of Precipitation, MM = Missing Value Source: NWS Daily Summary

Daily Weather History Graph

Daily Weather History Graph

Search for Another Location

Airport or City:

Trip Planner

Search our weather history database for the weather conditions in past years. The results will help you decide how hot, cold, wet, or windy it might be!

Date:

Astronomy

Dec. 26, 2012 Rise Set
Actual Time 8:30 AM CST 5:21 PM CST
Civil Twilight 7:57 AM CST 5:54 PM CST
Nautical Twilight 7:20 AM CST 6:31 PM CST
Astronomical Twilight 6:44 AM CST 7:07 PM CST
Moon 4:17 PM CST (12/26) 6:54 AM CST (12/26)
Length of Visible Light 9h 57m
Length of Day
8h 50m
Waxing Gibbous, 97% of the Moon is Illuminated
Dec 26
Waxing Gibbous
Dec 28
Full
Jan 4
Last Quarter
Jan 11
New
Jan 18
First Quarter

Hourly Weather History & Observations

Time (CST) Temp. Windchill Dew Point Humidity Pressure Visibility Wind Dir Wind Speed Gust Speed Precip Events Conditions
12:15 AM -2.2 °F -14.2 °F -7.6 °F 78% 30.01 in 10.0 mi South 5.8 mph - N/A   Clear
12:35 AM -0.4 °F -12.0 °F -5.8 °F 78% 30.00 in 10.0 mi South 5.8 mph - N/A   Clear
12:55 AM -0.4 °F -12.0 °F -4.0 °F 85% 29.98 in 10.0 mi SSE 5.8 mph - N/A   Clear
1:15 AM -2.2 °F -12.5 °F -7.6 °F 78% 29.97 in 10.0 mi South 4.6 mph - N/A   Clear
1:35 AM -0.4 °F - -4.0 °F 85% 29.97 in 10.0 mi Calm Calm - N/A   Clear
1:55 AM 1.4 °F -6.2 °F -2.2 °F 85% 29.96 in 10.0 mi SSE 3.5 mph - N/A   Clear
2:15 AM 1.4 °F -9.9 °F -0.4 °F 92% 29.96 in 10.0 mi South 5.8 mph - N/A   Clear
2:35 AM 1.4 °F -6.2 °F -2.2 °F 85% 29.95 in 10.0 mi SSW 3.5 mph - N/A   Clear
2:55 AM 1.4 °F -6.2 °F -0.4 °F 92% 29.94 in 10.0 mi ESE 3.5 mph - N/A   Clear
3:15 AM 3.2 °F -4.2 °F -0.4 °F 85% 29.95 in 10.0 mi SE 3.5 mph - N/A   Clear
3:35 AM 5.0 °F - 1.4 °F 85% 29.94 in 10.0 mi Calm Calm - N/A   Clear
3:55 AM 3.2 °F - -0.4 °F 85% 29.94 in 10.0 mi Calm Calm - N/A   Clear
4:15 AM 5.0 °F - -0.4 °F 78% 29.94 in 10.0 mi Calm Calm - N/A   Clear
4:55 AM 5.0 °F - -0.4 °F 78% 29.92 in 10.0 mi Calm Calm - N/A   Clear
5:15 AM 5.0 °F - 1.4 °F 85% 29.91 in 10.0 mi Calm Calm - N/A   Clear
5:55 AM 5.0 °F - 1.4 °F 85% 29.89 in 10.0 mi Calm Calm - N/A   Partly Cloudy
6:15 AM 6.8 °F - 1.4 °F 79% 29.89 in 10.0 mi Calm Calm - N/A   Clear
6:35 AM 5.0 °F - 1.4 °F 85% 29.89 in 10.0 mi Calm Calm - N/A   Clear
6:55 AM 5.0 °F - 1.4 °F 85% 29.88 in 10.0 mi Calm Calm - N/A   Clear
7:15 AM 1.4 °F - -0.4 °F 92% 29.88 in 10.0 mi Calm Calm - N/A   Clear
7:35 AM -0.4 °F -10.4 °F -2.2 °F 92% 29.87 in 10.0 mi SSW 4.6 mph - N/A   Clear
7:55 AM 5.0 °F -2.1 °F -0.4 °F 78% 29.87 in 10.0 mi WSW 3.5 mph - N/A   Clear
8:15 AM 3.2 °F - -0.4 °F 85% 29.86 in 10.0 mi Calm Calm - N/A   Clear
8:35 AM 5.0 °F - 1.4 °F 85% 29.85 in 10.0 mi Calm Calm - N/A   Clear
8:55 AM 5.0 °F - -0.4 °F 78% 29.85 in 10.0 mi Calm Calm - N/A   Clear
9:15 AM 5.0 °F -2.1 °F 1.4 °F 85% 29.85 in 10.0 mi NW 3.5 mph - N/A   Clear
9:35 AM 3.2 °F -7.8 °F -0.4 °F 85% 29.85 in 10.0 mi West 5.8 mph - N/A   Clear
9:55 AM 5.0 °F -4.1 °F -0.4 °F 78% 29.86 in 10.0 mi West 4.6 mph - N/A   Partly Cloudy
10:15 AM 5.0 °F -2.1 °F 1.4 °F 85% 29.86 in 10.0 mi WNW 3.5 mph - N/A   Clear
10:35 AM 5.0 °F - 1.4 °F 85% 29.86 in 10.0 mi Calm Calm - N/A   Partly Cloudy
10:55 AM 5.0 °F - 1.4 °F 85% 29.85 in 10.0 mi Calm Calm - N/A   Scattered Clouds
11:15 AM 6.8 °F - 3.2 °F 85% 29.85 in 10.0 mi Calm Calm - N/A   Scattered Clouds
11:35 AM 6.8 °F - 1.4 °F 79% 29.83 in 10.0 mi Calm Calm - N/A   Partly Cloudy
11:55 AM 5.0 °F - 1.4 °F 85% 29.83 in 10.0 mi Calm Calm - N/A   Clear
12:15 PM 5.0 °F - 1.4 °F 85% 29.81 in 10.0 mi Calm Calm - N/A   Clear
12:35 PM 6.8 °F - 1.4 °F 79% 29.79 in 10.0 mi Calm Calm - N/A   Clear
12:55 PM 6.8 °F - 1.4 °F 79% 29.79 in 10.0 mi Calm Calm - N/A   Clear
1:15 PM 6.8 °F -2.0 °F 1.4 °F 79% 29.78 in 10.0 mi North 4.6 mph - N/A   Clear
1:35 PM 5.0 °F -2.1 °F 1.4 °F 85% 29.77 in 10.0 mi WNW 3.5 mph - N/A   Clear
1:55 PM 6.8 °F -0.1 °F 1.4 °F 79% 29.77 in 10.0 mi WNW 3.5 mph - N/A   Clear
2:15 PM 5.0 °F -2.1 °F 1.4 °F 85% 29.76 in 10.0 mi NNE 3.5 mph - N/A   Clear
2:35 PM 5.0 °F - 1.4 °F 85% 29.75 in 10.0 mi Calm Calm - N/A   Clear
2:55 PM 5.0 °F -4.1 °F 1.4 °F 85% 29.74 in 10.0 mi NE 4.6 mph - N/A   Clear
3:15 PM 5.0 °F -4.1 °F 1.4 °F 85% 29.75 in 10.0 mi NE 4.6 mph - N/A   Clear
3:35 PM 5.0 °F -5.6 °F 1.4 °F 85% 29.75 in 10.0 mi NE 5.8 mph - N/A   Partly Cloudy
3:55 PM 5.0 °F -6.9 °F 1.4 °F 85% 29.74 in 10.0 mi NE 6.9 mph - N/A   Partly Cloudy
4:15 PM 5.0 °F -6.9 °F 1.4 °F 85% 29.75 in 10.0 mi NE 6.9 mph - N/A   Mostly Cloudy
4:35 PM 5.0 °F -8.1 °F 1.4 °F 85% 29.75 in 10.0 mi NE 8.1 mph - N/A   Overcast
4:55 PM 5.0 °F -6.9 °F 1.4 °F 85% 29.75 in 10.0 mi NNE 6.9 mph - N/A   Overcast
5:15 PM 5.0 °F -5.6 °F 1.4 °F 85% 29.75 in 10.0 mi NNE 5.8 mph - N/A   Overcast
5:35 PM 5.0 °F -5.6 °F 1.4 °F 85% 29.75 in 10.0 mi NNE 5.8 mph - N/A   Overcast
5:55 PM 5.0 °F -5.6 °F 1.4 °F 85% 29.74 in 10.0 mi NE 5.8 mph - N/A   Overcast
6:15 PM 5.0 °F -4.1 °F 1.4 °F 85% 29.75 in 10.0 mi North 4.6 mph - N/A   Overcast
6:35 PM 5.0 °F -2.1 °F 1.4 °F 85% 29.75 in 10.0 mi NNW 3.5 mph - N/A   Overcast
6:55 PM 5.0 °F -2.1 °F 1.4 °F 85% 29.75 in 10.0 mi West 3.5 mph - N/A   Overcast
7:35 PM 5.0 °F -2.1 °F 1.4 °F 85% 29.74 in 10.0 mi NW 3.5 mph - N/A   Overcast
7:55 PM 5.0 °F -2.1 °F -0.4 °F 78% 29.74 in 10.0 mi West 3.5 mph - N/A   Mostly Cloudy
8:15 PM 5.0 °F -4.1 °F 1.4 °F 85% 29.74 in 10.0 mi West 4.6 mph - N/A   Overcast
8:35 PM 5.0 °F - 1.4 °F 85% 29.74 in 10.0 mi Calm Calm - N/A   Mostly Cloudy
8:55 PM 5.0 °F -2.1 °F 1.4 °F 85% 29.73 in 1.8 mi WNW 3.5 mph - 0.04 in Snow Light Snow
9:15 PM 5.0 °F - 1.4 °F 85% 29.73 in 7.0 mi Calm Calm - N/A Snow Light Snow
9:35 PM 5.0 °F - 1.4 °F 85% 29.73 in 2.5 mi Calm Calm - 0.02 in Snow Light Snow
9:55 PM 5.0 °F -2.1 °F 1.4 °F 85% 29.73 in 5.0 mi WNW 3.5 mph - 0.03 in Snow Light Snow
10:15 PM 5.0 °F -2.1 °F 1.4 °F 85% 29.74 in 10.0 mi WNW 3.5 mph - N/A Snow Light Snow
10:35 PM 5.0 °F -2.1 °F 1.4 °F 85% 29.74 in 5.0 mi NNW 3.5 mph - N/A Snow Light Snow
10:55 PM 5.0 °F -2.1 °F 1.4 °F 85% 29.74 in 3.0 mi West 3.5 mph - 0.13 in Snow Light Snow
11:15 PM 5.0 °F - 1.4 °F 85% 29.74 in 9.0 mi Calm Calm - N/A Snow Light Snow
11:35 PM 5.0 °F -2.1 °F 1.4 °F 85% 29.74 in 3.0 mi WNW 3.5 mph - 0.04 in Snow Light Snow
11:55 PM 5.0 °F -4.1 °F 1.4 °F 85% 29.73 in 4.0 mi NW 4.6 mph - 0.14 in Snow Light Snow